Weather History for Crestview, FL

Change the Weather History Date:

Monday, November 12, 2012

  Actual Average Record
Temperature  
Mean Temperature 64 °F -  
Max Temperature 73 °F - - ()
Min Temperature 53 °F - - ()
Degree Days  
Heating Degree Days 2    
Growing Degree Days 14 (Base 50)    
Moisture  
Dew Point 61 °F    
Average Humidity 90    
Maximum Humidity 100    
Minimum Humidity 73    
Precipitation  
Precipitation 0.25 in - - ()
Sea Level Pressure  
Sea Level Pressure 30.22 in    
Wind  
Wind Speed 11 mph (North)    
Max Wind Speed 20 mph    
Max Gust Speed 24 mph    
Visibility 8 miles    
Events Rain , Thunderstorm    
T = Trace of Precipitation, MM = Missing Value Source: NWS Daily Summary

Daily Weather History Graph

Daily Weather History Graph

Search for Another Location

Airport:

Trip Planner

Search our weather history database for the weather conditions in past years. The results will help you decide how hot, cold, wet, or windy it might be!

Date:

Astronomy

Nov. 12, 2012 Rise Set
Actual Time 6:10 AM CST 4:50 PM CST
Civil Twilight 5:44 AM CST 5:15 PM CST
Nautical Twilight 5:15 AM CST 5:44 PM CST
Astronomical Twilight 4:47 AM CST 6:12 PM CST
Moon 4:38 AM CST (11/12) 3:52 PM CST (11/12)
Length of Visible Light 11h 30m
Length of Day
10h 39m
Waning Crescent, 2% of the Moon is Illuminated
Nov 12
Waning Crescent
Nov 13
New
Nov 20
First Quarter
Nov 28
Full
Dec 6
Last Quarter

Hourly Weather History & Observations

Time (CST) Temp. Dew Point Humidity Pressure Visibility Wind Dir Wind Speed Gust Speed Precip Events Conditions
12:55 AM 64.2 °F 55.9 °F 74% 30.21 in 10.0 mi ESE 8.1 mph - N/A   Partly Cloudy
1:55 AM 63.9 °F 55.2 °F 73% 30.20 in 10.0 mi ESE 5.8 mph - N/A   Mostly Cloudy
2:55 AM 63.3 °F 55.4 °F 75% 30.19 in 10.0 mi ESE 6.9 mph - N/A   Clear
3:55 AM 62.4 °F 57.4 °F 84% 30.19 in 10.0 mi ESE 6.9 mph - N/A   Clear
4:55 AM 62.2 °F 59.0 °F 89% 30.19 in 10.0 mi ESE 5.8 mph 17.3 mph N/A   Clear
5:55 AM 62.6 °F 60.6 °F 93% 30.19 in 10.0 mi ESE 10.4 mph - N/A   Clear
6:51 AM 62.6 °F 60.8 °F 94% 30.20 in 10.0 mi SE 11.5 mph - N/A   Partly Cloudy
6:55 AM 63.1 °F 61.7 °F 95% 30.19 in 10.0 mi ESE 9.2 mph - N/A   Partly Cloudy
7:01 AM 64.4 °F 62.6 °F 94% 30.19 in 10.0 mi SE 12.7 mph 18.4 mph N/A   Partly Cloudy
7:14 AM 64.4 °F 62.6 °F 94% 30.21 in 10.0 mi ESE 9.2 mph - N/A   Mostly Cloudy
7:16 AM 64.4 °F 62.6 °F 94% 30.21 in 10.0 mi SE 5.8 mph - N/A   Mostly Cloudy
7:47 AM 64.4 °F 62.6 °F 94% 30.22 in 10.0 mi ESE 4.6 mph - N/A   Overcast
7:55 AM 64.9 °F 63.0 °F 93% 30.22 in 10.0 mi ESE 4.6 mph - N/A   Mostly Cloudy
8:01 AM 64.4 °F 62.6 °F 94% 30.21 in 10.0 mi ESE 4.6 mph - N/A   Scattered Clouds
8:55 AM 69.4 °F 64.8 °F 85% 30.22 in 10.0 mi SE 8.1 mph - N/A   Partly Cloudy
9:55 AM 72.9 °F 65.1 °F 77% 30.22 in 10.0 mi SSE 11.5 mph - N/A   Partly Cloudy
10:21 AM 73.4 °F 64.4 °F 73% 30.24 in 10.0 mi SSE 11.5 mph - N/A   Mostly Cloudy
10:42 AM 73.4 °F 64.4 °F 73% 30.23 in 10.0 mi SSE 15.0 mph 21.9 mph N/A   Scattered Clouds
10:55 AM 73.8 °F 65.3 °F 75% 30.23 in 10.0 mi SSE 13.8 mph - N/A   Scattered Clouds
11:13 AM 73.4 °F 66.2 °F 78% 30.22 in 10.0 mi SE 13.8 mph - N/A Rain Light Rain
11:44 AM 71.6 °F 66.2 °F 83% 30.21 in 10.0 mi South 11.5 mph - N/A   Mostly Cloudy
11:55 AM 72.5 °F 66.4 °F 81% 30.21 in 10.0 mi South 13.8 mph - 0.00 in   Mostly Cloudy
12:22 PM 73.4 °F 66.2 °F 78% 30.20 in 10.0 mi SSE 12.7 mph - N/A Rain Light Rain
12:35 PM 71.6 °F 66.2 °F 83% 30.19 in 10.0 mi South 11.5 mph - N/A   Scattered Clouds
12:49 PM 71.6 °F 66.2 °F 83% 30.18 in 10.0 mi SSE 9.2 mph - N/A   Light Drizzle
12:55 PM 71.6 °F 66.7 °F 85% 30.18 in 10.0 mi SSE 9.2 mph - 0.00 in   Light Drizzle
1:00 PM 71.6 °F 66.2 °F 83% 30.18 in 10.0 mi SSE 11.5 mph - N/A   Mostly Cloudy
1:55 PM 73.2 °F 65.8 °F 78% 30.17 in 10.0 mi SSE 12.7 mph - 0.00 in   Mostly Cloudy
2:17 PM 73.4 °F 66.2 °F 78% 30.17 in 10.0 mi South 10.4 mph - N/A   Light Drizzle
2:31 PM 69.8 °F 66.2 °F 88% 30.18 in 5.0 mi NW 13.8 mph 20.7 mph N/A Rain Light Rain
2:38 PM 66.2 °F 62.6 °F 88% 30.18 in 5.0 mi NW 16.1 mph 20.7 mph N/A   Mostly Cloudy
2:41 PM 66.2 °F 62.6 °F 88% 30.18 in 3.0 mi NW 18.4 mph 24.2 mph N/A Rain Rain
2:42 PM 66.2 °F 62.6 °F 88% 30.18 in 2.5 mi NW 19.6 mph 24.2 mph N/A Rain Rain
2:43 PM 66.2 °F 62.6 °F 88% 30.18 in 1.8 mi NW 19.6 mph 24.2 mph N/A Rain , Thunderstorm Thunderstorms and Rain
2:44 PM 66.2 °F 62.6 °F 88% 30.18 in 1.5 mi NW 18.4 mph 24.2 mph N/A Rain , Thunderstorm Thunderstorms and Rain
2:46 PM 64.4 °F 62.6 °F 94% 30.18 in 1.2 mi NNW 17.3 mph 24.2 mph N/A Rain , Thunderstorm Heavy Thunderstorms and Rain
2:47 PM 64.4 °F 62.6 °F 94% 30.18 in 1.0 mi NNW 17.3 mph 24.2 mph N/A Rain , Thunderstorm Heavy Thunderstorms and Rain
2:55 PM 64.4 °F 63.1 °F 96% 30.19 in 1.2 mi NW 12.7 mph - 0.19 in Rain , Thunderstorm Thunderstorms and Rain
2:57 PM 64.4 °F 62.6 °F 94% 30.19 in 2.0 mi NW 10.4 mph - N/A Rain , Thunderstorm Light Thunderstorms and Rain
2:58 PM 64.4 °F 62.6 °F 94% 30.19 in 2.0 mi NW 9.2 mph - N/A Rain Light Rain
3:01 PM 64.4 °F 62.6 °F 94% 30.19 in 2.5 mi NW 10.4 mph - N/A Rain Light Rain
3:04 PM 64.4 °F 62.6 °F 94% 30.19 in 3.0 mi NW 11.5 mph - N/A Rain Rain
3:07 PM 64.4 °F 62.6 °F 94% 30.19 in 4.0 mi NNW 10.4 mph - N/A Rain Light Rain
3:17 PM 64.4 °F 62.6 °F 94% 30.20 in 10.0 mi NNW 11.5 mph - N/A   Overcast
3:23 PM 64.4 °F 62.6 °F 94% 30.20 in 10.0 mi NNW 12.7 mph - N/A   Overcast
3:38 PM 62.6 °F 62.6 °F 100% 30.20 in 10.0 mi NNW 11.5 mph - N/A   Light Drizzle
3:51 PM 62.6 °F 60.8 °F 94% 30.21 in 8.0 mi NNW 11.5 mph - N/A   Light Drizzle
3:55 PM 62.4 °F 61.2 °F 96% 30.21 in 9.0 mi NNW 13.8 mph - 0.04 in   Light Drizzle
3:56 PM 62.6 °F 60.8 °F 94% 30.21 in 9.0 mi NNW 10.4 mph - N/A   Light Drizzle
3:57 PM 62.6 °F 60.8 °F 94% 30.21 in 9.0 mi NNW 12.7 mph - N/A   Light Drizzle
3:59 PM 62.6 °F 60.8 °F 94% 30.21 in 8.0 mi NNW 12.7 mph - N/A   Light Drizzle
4:09 PM 60.8 °F 60.8 °F 100% 30.22 in 5.0 mi NNW 11.5 mph - N/A   Light Drizzle
4:23 PM 60.8 °F 60.8 °F 100% 30.22 in 6.0 mi NNW 12.7 mph - N/A Rain Light Rain
4:30 PM 60.8 °F 60.8 °F 100% 30.22 in 9.0 mi NNW 12.7 mph - N/A Rain Light Rain
4:32 PM 60.8 °F 60.8 °F 100% 30.22 in 10.0 mi NNW 11.5 mph - N/A Rain Light Rain
4:43 PM 60.8 °F 59.0 °F 94% 30.22 in 10.0 mi North 12.7 mph 17.3 mph N/A   Light Drizzle
4:55 PM 60.3 °F 59.2 °F 96% 30.22 in 10.0 mi NNW 11.5 mph - 0.01 in   Light Drizzle
4:57 PM 60.8 °F 59.0 °F 94% 30.22 in 10.0 mi North 9.2 mph - N/A   Overcast
5:03 PM 60.8 °F 59.0 °F 94% 30.23 in 10.0 mi NNW 9.2 mph - N/A   Overcast
5:12 PM 59.0 °F 59.0 °F 100% 30.23 in 10.0 mi NNW 10.4 mph - N/A   Light Drizzle
5:14 PM 59.0 °F 59.0 °F 100% 30.23 in 10.0 mi NNW 11.5 mph - N/A   Light Drizzle
5:21 PM 59.0 °F 59.0 °F 100% 30.23 in 10.0 mi NNW 10.4 mph - N/A   Overcast
5:24 PM 59.0 °F 59.0 °F 100% 30.23 in 10.0 mi North 13.8 mph - N/A   Overcast
5:34 PM 59.0 °F 57.2 °F 94% 30.24 in 10.0 mi North 12.7 mph - N/A   Overcast
5:55 PM 58.6 °F 57.2 °F 95% 30.25 in 10.0 mi North 12.7 mph - 0.00 in   Overcast
6:00 PM 59.0 °F 57.2 °F 94% 30.25 in 10.0 mi North 10.4 mph - N/A   Light Drizzle
6:04 PM 59.0 °F 57.2 °F 94% 30.25 in 10.0 mi North 10.4 mph - N/A   Overcast
6:07 PM 59.0 °F 57.2 °F 94% 30.25 in 10.0 mi North 10.4 mph - N/A Rain Light Rain
6:26 PM 59.0 °F 57.2 °F 94% 30.25 in 10.0 mi North 10.4 mph - N/A   Overcast
6:39 PM 59.0 °F 57.2 °F 94% 30.26 in 10.0 mi North 10.4 mph - N/A   Overcast
6:55 PM 57.9 °F 57.2 °F 97% 30.26 in 10.0 mi NNW 16.1 mph - 0.01 in   Overcast
7:05 PM 57.2 °F 55.4 °F 94% 30.27 in 10.0 mi NNW 11.5 mph - N/A   Overcast
7:40 PM 57.2 °F 53.6 °F 88% 30.27 in 10.0 mi NNW 15.0 mph 23.0 mph N/A   Overcast
7:55 PM 55.9 °F 53.4 °F 91% 30.26 in 10.0 mi North 17.3 mph 23.0 mph N/A   Mostly Cloudy
7:58 PM 55.4 °F 53.6 °F 94% 30.27 in 10.0 mi North 17.3 mph 23.0 mph N/A   Mostly Cloudy
7:59 PM 55.4 °F 53.6 °F 94% 30.27 in 10.0 mi North 17.3 mph 23.0 mph N/A   Scattered Clouds
8:33 PM 55.4 °F 53.6 °F 94% 30.27 in 10.0 mi North 11.5 mph - N/A   Mostly Cloudy
8:55 PM 55.6 °F 53.1 °F 91% 30.27 in 10.0 mi North 16.1 mph 20.7 mph N/A   Overcast
9:55 PM 55.4 °F 52.2 °F 89% 30.28 in 10.0 mi NNW 13.8 mph - N/A   Overcast
10:55 PM 54.7 °F 50.9 °F 87% 30.27 in 10.0 mi North 12.7 mph - N/A   Mostly Cloudy
11:55 PM 53.2 °F 49.1 °F 86% 30.27 in 10.0 mi North 15.0 mph - N/A   Overcast